Cabot Strait: Past 24 Hour Conditions

 

Îles de la Madeleine Airport

06:00 PM AST 28 November 2014
This table is a summary of hourly weather conditions for the past 24 hours.
Date / Time
(AST)
Wind(knots) Conditions Visibility(km) Pressure(kPa) Air tempC) Relative humidity(%) Dew pointC) Wind Chill
28 November 2014
18:00 NE 8 Light Snowshower 24 101.4 -3 81 -6 -8
17:00 NE 8 Mostly Cloudy 24 101.4 -3 81 -5 -8
16:00 NNE 9 Mostly Cloudy 24 101.3 -3 76 -6 -8
15:00 NNE 11 Light Snowshower 24 101.3 -2 77 -6 -8
14:00 NE 11 Light Snowshower 24 101.3 -2 81 -5 -8
13:00 NE 9 Mostly Cloudy 32 101.3 -2 80 -5 -7
12:00 NE 8 Mostly Cloudy 32 101.3 -2 76 -5 -6
11:00 NE 11 Mostly Cloudy 32 101.4 -2 79 -5 -8
10:00 NE 7 Mostly Cloudy 32 101.4 -2 80 -5 -6
9:00 NE 5 Light Snowshower 32 101.4 -2 87 -4 -6
8:00 N 11 gust 16 Light Snowshower 2 101.4 -3 92 -4 -9
7:00 NNW 12 Light Snowshower 13 101.4 -2 87 -4 -8
6:00 N 11 Light Snowshower 6 101.4 -2 93 -3 -8
5:00 N 11 gust 22 N/A N/A 101.3 -3 97 -3 -9
4:00 NW 11 N/A N/A 101.3 -2 91 -4 -8
3:00 NW 10 gust 15 N/A N/A 101.2 -2 90 -4 -8
2:00 NW 15 N/A N/A 101.2 -2 92 -4 -9
1:00 NNW 13 N/A N/A 101.1 -2 90 -4 -9
0:00 NNW 16 N/A N/A 101.0 -2 90 -4 -10
27 November 2014
23:00 N 19 gust 24 Cloudy 24 101.0 -2 81 -5 -9
22:00 N 21 gust 29 Cloudy 24 100.9 -2 83 -4 -10
21:00 NNW 26 gust 32 Cloudy 24 100.8 -2 83 -4 -10
20:00 NNW 28 gust 33 Cloudy 24 100.7 -2 83 -4 -10
19:00 NNW 26 gust 36 Cloudy 24 100.6 -1 83 -4 -10
18:00 NNW 30 gust 39 Light Snowshower 24 100.4 -1 81 -4 -10
 
Map of Atlantic - Newfoundland marine weather areas Southwestern Grand Banks - 44138 Banquereau - 44139 Tail of the Bank - 44140 Nickerson Bank - 44251 Northeast Burgeo Bank - 44255 Blanc-Sablon Airport Cap Whittle Chevery Natashquan Airport Heath Point Miscou Island Grand Étang Ingonish Beach North Mountain St.Paul Island J.A. Douglas McCurdy Sydney Airport Charlottetown Airport East Point North Cape Argentia Bonavista Burgeo Cape Race Corner Brook Daniel's Harbour Englee Ferolle Point La Scie Port aux Basques Rocky Harbour Sagona Island St. Anthony Airport St. John's Int'l Airport St. Lawrence Stephenville Airport Twillingate Winterland Wreckhouse Cartwright Airport Mary's Harbour Grates Cove Pool's Island Marticot Island Long Pond Îles de la Madeleine Airport
Legend: buoyBuoy land stationLand Station